リニア彗星

354P/LINEAR (2013)

English version
Home page
Updated on September 2, 2017

---------------------------------------------------------------------

・ プロフィール

・ 軌道要素

Epoch 2013 May 28.0 TT = JDT 2456440.5
T 2013 May 22.23087 TT                                  MPCW
q   2.0035690            (2000.0)            P               Q
n   0.28431857     Peri.  132.82619     -0.05548135     -0.99674010
a   2.2905120      Node   320.24117     +0.88727438     -0.02231446
e   0.1252746      Incl.    5.25487     +0.45789299     -0.07753218
P   3.47
From 135 observations 2010 Jan. 6-2017 Jan. 28, mean residual 0".3.

・ 光度変化

        H = 21.3  G = 0.15

---------------------------------------------------------------------

軌道要素はM.P.E.C. 2017-M38に掲載されたものです。
光度グラフはComet for Windowsで作成したものです。

---------------------------------------------------------------------

Copyright(C) Seiichi Yoshida (comet@aerith.net). All rights reserved.